(°C)
-11°
-11°
-11°
-11°
-11°
-12°
-12°
(°C)
-17°
-16°
-16°
-17°
-17°
-18°
-18°
S
S
S
S
S
S
S
(km/h)
11-28
11-27
11-28
11-28
12-28
12-28
13-29
(mm)
0
0
0
0
0
0
0
(%)
0
0
0
0
0
0
0

Elevação do sol

/ -38.7°
sun-icon
UV 0
09:29
17:08
Minguante côncava (334°)
06:17
16:02

METAR para 55.03°N 82.6°L (UNNT)

Hora Condições Temperatura/
Ponto de condensação
Vento Visibilidade Tempo Nuvens Pressão Mudança Bruto
VFR °C / °C 160º 10kt >10km - Clouds and Visibility OK 1023 No Significant change. Runway 25: Compacted snow, 11-25% contamination with 1mm, friction coefficient 0.60. Runway 16: Compacted snow, 11-25% contamination with 1mm, friction coefficient 0.60. UNNT 012130Z 16005MPS CAVOK M11/M13 Q1023 R25/820160 R16/820160 NOSIG RMK QFE757/1010
VFR °C / °C 160º 10kt >10km - Clouds and Visibility OK 1024 No Significant change. Runway 25: Compacted snow, 11-25% contamination with 1mm, friction coefficient 0.60. Runway 16: Compacted snow, 11-25% contamination with 1mm, friction coefficient 0.60. UNNT 012100Z 16005MPS CAVOK M11/M13 Q1024 R25/820160 R16/820160 NOSIG RMK QFE758/1010
VFR °C / °C 170º 8kt >10km - Clouds and Visibility OK 1024 No Significant change. Runway 25: Compacted snow, 11-25% contamination with 1mm, friction coefficient 0.60. Runway 16: Compacted snow, 11-25% contamination with 1mm, friction coefficient 0.60. UNNT 012030Z 17004MPS CAVOK M11/M13 Q1024 R25/820160 R16/820160 NOSIG RMK QFE758/1011
VFR °C / °C 160º 8kt >10km - Clouds and Visibility OK 1024 No Significant change. Runway 25: Compacted snow, 11-25% contamination with 1mm, friction coefficient 0.60. Runway 16: Compacted snow, 11-25% contamination with 1mm, friction coefficient 0.60. UNNT 012000Z 16004MPS CAVOK M11/M13 Q1024 R25/820160 R16/820160 NOSIG RMK QFE758/1011
VFR °C / °C 160º 8kt >10km - Clouds and Visibility OK 1024 No Significant change. Runway 25: Compacted snow, 11-25% contamination with 1mm, friction coefficient 0.60. Runway 16: Compacted snow, 11-25% contamination with 1mm, friction coefficient 0.60. UNNT 011930Z 16004MPS CAVOK M11/M13 Q1024 R25/820160 R16/820160 NOSIG RMK QFE758/1011
VFR °C / °C 140º 6kt >10km - Clouds and Visibility OK 1024 No Significant change. Runway 25: Compacted snow, 11-25% contamination with 1mm, friction coefficient 0.60. Runway 16: Compacted snow, 11-25% contamination with 1mm, friction coefficient 0.60. UNNT 011900Z 14003MPS CAVOK M12/M13 Q1024 R25/820160 R16/820160 NOSIG RMK QFE758/1011
VFR °C / °C 170º 4kt >10km - Clouds and Visibility OK 1025 No Significant change. Runway 25: Compacted snow, 11-25% contamination with 1mm, friction coefficient 0.60. Runway 16: Compacted snow, 11-25% contamination with 1mm, friction coefficient 0.60. UNNT 011830Z 17002MPS CAVOK M10/M12 Q1025 R25/820160 R16/820160 NOSIG RMK QFE758/1011
VFR °C / °C 170º 6kt >10km - Clouds and Visibility OK 1025 No Significant change. Runway 25: Compacted snow, 11-25% contamination with 1mm, friction coefficient 0.60. Runway 16: Compacted snow, 11-25% contamination with 1mm, friction coefficient 0.60. UNNT 011800Z 17003MPS CAVOK M11/M13 Q1025 R25/820160 R16/820160 NOSIG RMK QFE758/1011
VFR °C / °C 170º 6kt >10km - Clouds and Visibility OK 1025 No Significant change. Runway 25: Compacted snow, 11-25% contamination with 1mm, friction coefficient 0.60. Runway 16: Compacted snow, 11-25% contamination with 1mm, friction coefficient 0.60. UNNT 011730Z 17003MPS CAVOK M11/M13 Q1025 R25/820160 R16/820160 NOSIG RMK QFE759/1012
VFR °C / °C 180º 8kt >10km - Clouds and Visibility OK 1025 No Significant change. Runway 25: Compacted snow, 11-25% contamination with 1mm, friction coefficient 0.60. Runway 16: Compacted snow, 11-25% contamination with 1mm, friction coefficient 0.60. UNNT 011700Z 18004MPS CAVOK M10/M13 Q1025 R25/820160 R16/820160 NOSIG RMK QFE759/1012
VFR °C / °C 180º 8kt >10km - Clouds and Visibility OK 1025 No Significant change. Runway 25: Compacted snow, 11-25% contamination with 1mm, friction coefficient 0.60. Runway 16: Compacted snow, 11-25% contamination with 1mm, friction coefficient 0.60. UNNT 011630Z 18004MPS CAVOK M10/M13 Q1025 R25/820160 R16/820160 NOSIG RMK QFE759/1012
VFR °C / °C 180º 8kt >10km - Clouds and Visibility OK 1025 No Significant change. Runway 25: Compacted snow, 11-25% contamination with 1mm, friction coefficient 0.60. Runway 16: Compacted snow, 11-25% contamination with 1mm, friction coefficient 0.60. UNNT 011600Z 18004MPS CAVOK M10/M13 Q1025 R25/820160 R16/820160 NOSIG RMK QFE759/1012
VFR °C / °C 190º 8kt >10km - Clouds and Visibility OK 1025 No Significant change. Runway 25: Compacted snow, 11-25% contamination with 1mm, friction coefficient 0.60. Runway 16: Compacted snow, 11-25% contamination with 1mm, friction coefficient 0.60. UNNT 011530Z 19004MPS CAVOK M10/M13 Q1025 R25/820160 R16/820160 NOSIG RMK QFE759/1012
VFR °C / °C 190º 8kt >10km - Clouds and Visibility OK 1026 No Significant change. Runway 25: Compacted snow, 11-25% contamination with 1mm, friction coefficient 0.60. Runway 16: Compacted snow, 11-25% contamination with 1mm, friction coefficient 0.60. UNNT 011500Z 19004MPS CAVOK M10/M13 Q1026 R25/820160 R16/820160 NOSIG RMK QFE759/1012
VFR °C / °C 190º 8kt >10km - Clouds and Visibility OK 1026 No Significant change. Runway 25: Compacted snow, 11-25% contamination with 1mm, friction coefficient 0.60. Runway 16: Compacted snow, 11-25% contamination with 1mm, friction coefficient 0.60. UNNT 011430Z 19004MPS CAVOK M10/M12 Q1026 R25/820160 R16/820160 NOSIG RMK QFE759/1012
VFR °C / °C 190º 8kt >10km - Clouds and Visibility OK 1026 No Significant change. Runway 25: Compacted snow, 11-25% contamination with 1mm, friction coefficient 0.60. Runway 16: Compacted snow, 11-25% contamination with 1mm, friction coefficient 0.60. UNNT 011400Z 19004MPS CAVOK M10/M13 Q1026 R25/820160 R16/820160 NOSIG RMK QFE759/1012
VFR °C / °C 190º 8kt >10km - Clouds and Visibility OK 1026 No Significant change. Runway 25: Compacted snow, 11-25% contamination with 1mm, friction coefficient 0.60. Runway 16: Compacted snow, 11-25% contamination with 1mm, friction coefficient 0.60. UNNT 011330Z 19004MPS CAVOK M10/M13 Q1026 R25/820160 R16/820160 NOSIG RMK QFE759/1012
VFR °C / °C 180º 8kt >10km - Clouds and Visibility OK 1025 No Significant change. Runway 25: Compacted snow, 11-25% contamination with 1mm, friction coefficient 0.60. Runway 16: Compacted snow, 11-25% contamination with 1mm, friction coefficient 0.60. UNNT 011300Z 18004MPS CAVOK M10/M13 Q1025 R25/820160 R16/820160 NOSIG RMK QFE759/1012
VFR -9°C / °C 180º 6kt >10km - Clouds and Visibility OK 1026 No Significant change. Runway 25: Compacted snow, 11-25% contamination with 1mm, friction coefficient 0.60. Runway 16: Compacted snow, 11-25% contamination with 1mm, friction coefficient 0.60. UNNT 011230Z 18003MPS CAVOK M09/M13 Q1026 R25/820160 R16/820160 NOSIG RMK QFE759/1012
VFR -9°C / °C 170º 6kt >10km - Clouds and Visibility OK 1026 No Significant change. Runway 25: Compacted snow, 11-25% contamination with 1mm, friction coefficient 0.60. Runway 16: Compacted snow, 11-25% contamination with 1mm, friction coefficient 0.60. UNNT 011200Z 17003MPS CAVOK M09/M13 Q1026 R25/820160 R16/820160 NOSIG RMK QFE759/1012
VFR °C / °C 170º 6kt >10km - Clouds and Visibility OK 1026 No Significant change. Runway 25: Compacted snow, 11-25% contamination with 1mm, friction coefficient 0.60. Runway 16: Compacted snow, 11-25% contamination with 1mm, friction coefficient 0.60. UNNT 011130Z 17003MPS CAVOK M10/M14 Q1026 R25/820160 R16/820160 NOSIG RMK QFE759/1012
VFR -9°C / °C 180º 6kt >10km - Clouds and Visibility OK 1026 No Significant change. Runway 25: Compacted snow, 11-25% contamination with 1mm, friction coefficient 0.60. Runway 16: Compacted snow, 11-25% contamination with 1mm, friction coefficient 0.60. UNNT 011100Z 18003MPS CAVOK M09/M13 Q1026 R25/820160 R16/820160 NOSIG RMK QFE759/1012
VFR -8°C / °C 190º 6kt >10km - Clouds and Visibility OK 1026 No Significant change. Runway 25: Compacted snow, 11-25% contamination with 1mm, friction coefficient 0.60. Runway 16: Compacted snow, 11-25% contamination with 1mm, friction coefficient 0.60. UNNT 011030Z 19003MPS CAVOK M08/M13 Q1026 R25/820160 R16/820160 NOSIG RMK QFE759/1012
VFR -7°C / °C 170º 6kt >10km - Clouds and Visibility OK 1025 No Significant change. Runway 25: Compacted snow, 11-25% contamination with 1mm, friction coefficient 0.60. Runway 16: Compacted snow, 11-25% contamination with 1mm, friction coefficient 0.60. UNNT 011000Z 17003MPS CAVOK M07/M12 Q1025 R25/820160 R16/820160 NOSIG RMK QFE759/1012

VFR

°C / °C

[Mais]
Vento 160º 10kt
Visibilidade >10km
Tempo -
Nuvens Clouds and Visibility OK
Pressão 1023
Mudança No Significant change. Runway 25: Compacted snow, 11-25% contamination with 1mm, friction coefficient 0.60. Runway 16: Compacted snow, 11-25% contamination with 1mm, friction coefficient 0.60.
Bruto UNNT 012130Z 16005MPS CAVOK M11/M13 Q1023 R25/820160 R16/820160 NOSIG RMK QFE757/1010

VFR

°C / °C

[Mais]
Vento 160º 10kt
Visibilidade >10km
Tempo -
Nuvens Clouds and Visibility OK
Pressão 1024
Mudança No Significant change. Runway 25: Compacted snow, 11-25% contamination with 1mm, friction coefficient 0.60. Runway 16: Compacted snow, 11-25% contamination with 1mm, friction coefficient 0.60.
Bruto UNNT 012100Z 16005MPS CAVOK M11/M13 Q1024 R25/820160 R16/820160 NOSIG RMK QFE758/1010

VFR

°C / °C

[Mais]
Vento 170º 8kt
Visibilidade >10km
Tempo -
Nuvens Clouds and Visibility OK
Pressão 1024
Mudança No Significant change. Runway 25: Compacted snow, 11-25% contamination with 1mm, friction coefficient 0.60. Runway 16: Compacted snow, 11-25% contamination with 1mm, friction coefficient 0.60.
Bruto UNNT 012030Z 17004MPS CAVOK M11/M13 Q1024 R25/820160 R16/820160 NOSIG RMK QFE758/1011

VFR

°C / °C

[Mais]
Vento 160º 8kt
Visibilidade >10km
Tempo -
Nuvens Clouds and Visibility OK
Pressão 1024
Mudança No Significant change. Runway 25: Compacted snow, 11-25% contamination with 1mm, friction coefficient 0.60. Runway 16: Compacted snow, 11-25% contamination with 1mm, friction coefficient 0.60.
Bruto UNNT 012000Z 16004MPS CAVOK M11/M13 Q1024 R25/820160 R16/820160 NOSIG RMK QFE758/1011

VFR

°C / °C

[Mais]
Vento 160º 8kt
Visibilidade >10km
Tempo -
Nuvens Clouds and Visibility OK
Pressão 1024
Mudança No Significant change. Runway 25: Compacted snow, 11-25% contamination with 1mm, friction coefficient 0.60. Runway 16: Compacted snow, 11-25% contamination with 1mm, friction coefficient 0.60.
Bruto UNNT 011930Z 16004MPS CAVOK M11/M13 Q1024 R25/820160 R16/820160 NOSIG RMK QFE758/1011

VFR

°C / °C

[Mais]
Vento 140º 6kt
Visibilidade >10km
Tempo -
Nuvens Clouds and Visibility OK
Pressão 1024
Mudança No Significant change. Runway 25: Compacted snow, 11-25% contamination with 1mm, friction coefficient 0.60. Runway 16: Compacted snow, 11-25% contamination with 1mm, friction coefficient 0.60.
Bruto UNNT 011900Z 14003MPS CAVOK M12/M13 Q1024 R25/820160 R16/820160 NOSIG RMK QFE758/1011

VFR

°C / °C

[Mais]
Vento 170º 4kt
Visibilidade >10km
Tempo -
Nuvens Clouds and Visibility OK
Pressão 1025
Mudança No Significant change. Runway 25: Compacted snow, 11-25% contamination with 1mm, friction coefficient 0.60. Runway 16: Compacted snow, 11-25% contamination with 1mm, friction coefficient 0.60.
Bruto UNNT 011830Z 17002MPS CAVOK M10/M12 Q1025 R25/820160 R16/820160 NOSIG RMK QFE758/1011

VFR

°C / °C

[Mais]
Vento 170º 6kt
Visibilidade >10km
Tempo -
Nuvens Clouds and Visibility OK
Pressão 1025
Mudança No Significant change. Runway 25: Compacted snow, 11-25% contamination with 1mm, friction coefficient 0.60. Runway 16: Compacted snow, 11-25% contamination with 1mm, friction coefficient 0.60.
Bruto UNNT 011800Z 17003MPS CAVOK M11/M13 Q1025 R25/820160 R16/820160 NOSIG RMK QFE758/1011

VFR

°C / °C

[Mais]
Vento 170º 6kt
Visibilidade >10km
Tempo -
Nuvens Clouds and Visibility OK
Pressão 1025
Mudança No Significant change. Runway 25: Compacted snow, 11-25% contamination with 1mm, friction coefficient 0.60. Runway 16: Compacted snow, 11-25% contamination with 1mm, friction coefficient 0.60.
Bruto UNNT 011730Z 17003MPS CAVOK M11/M13 Q1025 R25/820160 R16/820160 NOSIG RMK QFE759/1012

VFR

°C / °C

[Mais]
Vento 180º 8kt
Visibilidade >10km
Tempo -
Nuvens Clouds and Visibility OK
Pressão 1025
Mudança No Significant change. Runway 25: Compacted snow, 11-25% contamination with 1mm, friction coefficient 0.60. Runway 16: Compacted snow, 11-25% contamination with 1mm, friction coefficient 0.60.
Bruto UNNT 011700Z 18004MPS CAVOK M10/M13 Q1025 R25/820160 R16/820160 NOSIG RMK QFE759/1012

VFR

°C / °C

[Mais]
Vento 180º 8kt
Visibilidade >10km
Tempo -
Nuvens Clouds and Visibility OK
Pressão 1025
Mudança No Significant change. Runway 25: Compacted snow, 11-25% contamination with 1mm, friction coefficient 0.60. Runway 16: Compacted snow, 11-25% contamination with 1mm, friction coefficient 0.60.
Bruto UNNT 011630Z 18004MPS CAVOK M10/M13 Q1025 R25/820160 R16/820160 NOSIG RMK QFE759/1012

VFR

°C / °C

[Mais]
Vento 180º 8kt
Visibilidade >10km
Tempo -
Nuvens Clouds and Visibility OK
Pressão 1025
Mudança No Significant change. Runway 25: Compacted snow, 11-25% contamination with 1mm, friction coefficient 0.60. Runway 16: Compacted snow, 11-25% contamination with 1mm, friction coefficient 0.60.
Bruto UNNT 011600Z 18004MPS CAVOK M10/M13 Q1025 R25/820160 R16/820160 NOSIG RMK QFE759/1012

VFR

°C / °C

[Mais]
Vento 190º 8kt
Visibilidade >10km
Tempo -
Nuvens Clouds and Visibility OK
Pressão 1025
Mudança No Significant change. Runway 25: Compacted snow, 11-25% contamination with 1mm, friction coefficient 0.60. Runway 16: Compacted snow, 11-25% contamination with 1mm, friction coefficient 0.60.
Bruto UNNT 011530Z 19004MPS CAVOK M10/M13 Q1025 R25/820160 R16/820160 NOSIG RMK QFE759/1012

VFR

°C / °C

[Mais]
Vento 190º 8kt
Visibilidade >10km
Tempo -
Nuvens Clouds and Visibility OK
Pressão 1026
Mudança No Significant change. Runway 25: Compacted snow, 11-25% contamination with 1mm, friction coefficient 0.60. Runway 16: Compacted snow, 11-25% contamination with 1mm, friction coefficient 0.60.
Bruto UNNT 011500Z 19004MPS CAVOK M10/M13 Q1026 R25/820160 R16/820160 NOSIG RMK QFE759/1012

VFR

°C / °C

[Mais]
Vento 190º 8kt
Visibilidade >10km
Tempo -
Nuvens Clouds and Visibility OK
Pressão 1026
Mudança No Significant change. Runway 25: Compacted snow, 11-25% contamination with 1mm, friction coefficient 0.60. Runway 16: Compacted snow, 11-25% contamination with 1mm, friction coefficient 0.60.
Bruto UNNT 011430Z 19004MPS CAVOK M10/M12 Q1026 R25/820160 R16/820160 NOSIG RMK QFE759/1012

VFR

°C / °C

[Mais]
Vento 190º 8kt
Visibilidade >10km
Tempo -
Nuvens Clouds and Visibility OK
Pressão 1026
Mudança No Significant change. Runway 25: Compacted snow, 11-25% contamination with 1mm, friction coefficient 0.60. Runway 16: Compacted snow, 11-25% contamination with 1mm, friction coefficient 0.60.
Bruto UNNT 011400Z 19004MPS CAVOK M10/M13 Q1026 R25/820160 R16/820160 NOSIG RMK QFE759/1012

VFR

°C / °C

[Mais]
Vento 190º 8kt
Visibilidade >10km
Tempo -
Nuvens Clouds and Visibility OK
Pressão 1026
Mudança No Significant change. Runway 25: Compacted snow, 11-25% contamination with 1mm, friction coefficient 0.60. Runway 16: Compacted snow, 11-25% contamination with 1mm, friction coefficient 0.60.
Bruto UNNT 011330Z 19004MPS CAVOK M10/M13 Q1026 R25/820160 R16/820160 NOSIG RMK QFE759/1012

VFR

°C / °C

[Mais]
Vento 180º 8kt
Visibilidade >10km
Tempo -
Nuvens Clouds and Visibility OK
Pressão 1025
Mudança No Significant change. Runway 25: Compacted snow, 11-25% contamination with 1mm, friction coefficient 0.60. Runway 16: Compacted snow, 11-25% contamination with 1mm, friction coefficient 0.60.
Bruto UNNT 011300Z 18004MPS CAVOK M10/M13 Q1025 R25/820160 R16/820160 NOSIG RMK QFE759/1012

VFR

-9°C / °C

[Mais]
Vento 180º 6kt
Visibilidade >10km
Tempo -
Nuvens Clouds and Visibility OK
Pressão 1026
Mudança No Significant change. Runway 25: Compacted snow, 11-25% contamination with 1mm, friction coefficient 0.60. Runway 16: Compacted snow, 11-25% contamination with 1mm, friction coefficient 0.60.
Bruto UNNT 011230Z 18003MPS CAVOK M09/M13 Q1026 R25/820160 R16/820160 NOSIG RMK QFE759/1012

VFR

-9°C / °C

[Mais]
Vento 170º 6kt
Visibilidade >10km
Tempo -
Nuvens Clouds and Visibility OK
Pressão 1026
Mudança No Significant change. Runway 25: Compacted snow, 11-25% contamination with 1mm, friction coefficient 0.60. Runway 16: Compacted snow, 11-25% contamination with 1mm, friction coefficient 0.60.
Bruto UNNT 011200Z 17003MPS CAVOK M09/M13 Q1026 R25/820160 R16/820160 NOSIG RMK QFE759/1012

VFR

°C / °C

[Mais]
Vento 170º 6kt
Visibilidade >10km
Tempo -
Nuvens Clouds and Visibility OK
Pressão 1026
Mudança No Significant change. Runway 25: Compacted snow, 11-25% contamination with 1mm, friction coefficient 0.60. Runway 16: Compacted snow, 11-25% contamination with 1mm, friction coefficient 0.60.
Bruto UNNT 011130Z 17003MPS CAVOK M10/M14 Q1026 R25/820160 R16/820160 NOSIG RMK QFE759/1012

VFR

-9°C / °C

[Mais]
Vento 180º 6kt
Visibilidade >10km
Tempo -
Nuvens Clouds and Visibility OK
Pressão 1026
Mudança No Significant change. Runway 25: Compacted snow, 11-25% contamination with 1mm, friction coefficient 0.60. Runway 16: Compacted snow, 11-25% contamination with 1mm, friction coefficient 0.60.
Bruto UNNT 011100Z 18003MPS CAVOK M09/M13 Q1026 R25/820160 R16/820160 NOSIG RMK QFE759/1012

VFR

-8°C / °C

[Mais]
Vento 190º 6kt
Visibilidade >10km
Tempo -
Nuvens Clouds and Visibility OK
Pressão 1026
Mudança No Significant change. Runway 25: Compacted snow, 11-25% contamination with 1mm, friction coefficient 0.60. Runway 16: Compacted snow, 11-25% contamination with 1mm, friction coefficient 0.60.
Bruto UNNT 011030Z 19003MPS CAVOK M08/M13 Q1026 R25/820160 R16/820160 NOSIG RMK QFE759/1012

VFR

-7°C / °C

[Mais]
Vento 170º 6kt
Visibilidade >10km
Tempo -
Nuvens Clouds and Visibility OK
Pressão 1025
Mudança No Significant change. Runway 25: Compacted snow, 11-25% contamination with 1mm, friction coefficient 0.60. Runway 16: Compacted snow, 11-25% contamination with 1mm, friction coefficient 0.60.
Bruto UNNT 011000Z 17003MPS CAVOK M07/M12 Q1025 R25/820160 R16/820160 NOSIG RMK QFE759/1012

TAF para 55.03°N 82.6°L (UNNT)

From till


From till Wind 180º 6kt. Gust 16kt. Visibility 8000m. Scattered Clouds 4000ft.
Becoming from till Wind 160º 14kt. Gust 29kt. Visibility 8000m. Scattered Clouds 4000ft.

Bruto: TAF UNNT 012000Z 0121/0221 18003G08MPS 8000 SCT040 BECMG 0210/0212 16007G15MPS

Imagens atuais de satélite e precipitação para 55.03°N 82.6°L

O marcador de lugar é colocado em 55.03°N 82.6°L. [Mais]

A imagem de satélite em tempo real combina luz visível durante o dia com radiação infravermelha durante a noite. À noite, a imagem não é escura, pois a radiação infravermelha pode detectar diferenças de temperatura. Infelizmente, nuvens baixas e neblina são difíceis de distinguir das temperaturas do solo e, portanto, podem ser quase invisíveis durante a noite. As imagens de satélite Meteosat para a Europa são atualizadas em tempo real a cada 5 minutos. GOES-16/GOES-17 ( América do Norte e do Sul) e Himawari (Ásia) são atualizadas a cada 10 minutos.

Copyright 2021 EUMETSAT / meteoblue. / Copyright 2021 meteoblue

Radar e precipitação nowcast para 55.03°N 82.6°L

Chuvisco
Leve
Moderado
Forte
Muito forte
Granizo

O marcador do lugar é colocado em 55.03°N 82.6°L. Esta animação mostra o radar de precipitação para a última hora, assim como a 1h previsão. A queda de neve pode ser invisível para o radar. A intensidade da precipitação é codificada por cores, variando do azul claro ao laranja.